Location: Shepherdstown, WV
(39.4326°N, 77.8042°W)
Time: 05:36:56
(UTC-04:00)

Vanguard 1 - Pass Details

Date: 08 August 2021
Orbit: 652 x 3831 km, 34.3° (Epoch: 24 September)

Event Time Altitude Azimuth Distance (km) Brightness Sun altitude
Rises 15:57:49 0° 264° (W) 3,719 13.7 47.8°
Reaches altitude 10° 16:01:01 10° 244° (WSW) 3,121 13.6 47.2°
Maximum altitude 16:06:05 18° 204° (SSW) 3,107 13.4 46.3°
Drops below altitude 10° 16:13:07 10° 166° (SSE) 4,547 13.6 45.0°
Sets 16:19:26 0° 151° (SSE) 6,239 14.1 43.9°
